Satellite-Ground Cal/Val Site Overpasses Predictions

Prediction of Satellite NPP Overpassing Cal/Val Site: Antarctic Dome C

Ground Cal/Val Site Location: Latitude: -75.10, Longitude: 123.35; Satellite-Ground Site NADIR distance within 100 km.

Table of predicted overpasses for the next 14.0 days since TLE Epoch: 7/28/2017
Interval Starting Time Ending Time Minimum Distance Time Minimum Distance (km)
1 07/29/2017 15:01:02 07/29/2017 15:01:26 07/29/2017 15:01:14 56.60
2 07/30/2017 14:42:13 07/30/2017 14:42:38 07/30/2017 14:42:25 52.32
3 07/31/2017 07:43:54 07/31/2017 07:44:16 07/31/2017 07:44:05 67.94
4 08/01/2017 07:25:04 08/01/2017 07:25:30 08/01/2017 07:25:17 40.00
5 08/03/2017 15:07:32 08/03/2017 15:07:40 08/03/2017 15:07:36 94.65
6 08/04/2017 14:48:32 08/04/2017 14:49:01 08/04/2017 14:48:46 16.50
7 08/06/2017 07:31:23 08/06/2017 07:31:52 08/06/2017 07:31:37 3.46
8 08/09/2017 14:54:53 08/09/2017 14:55:22 08/09/2017 14:55:08 20.58
9 08/10/2017 14:36:12 08/10/2017 14:36:26 08/10/2017 14:36:19 86.48


NCC Satellite Cal/Val Overpasses Prediction Service
